Dalhart, TX

5:44 PM CDT on September 19, 2017 (GMT -0500)
Dalhart Municipal

Weather History for KDHT - January, 2013

Change the Weather History Date:

Thursday, January 10, 2013

  Actual Average Record
Temperature  
Mean Temperature 42 °F 34 °F  
Max Temperature 48 °F 50 °F 76 °F (1990)
Min Temperature 35 °F 19 °F -14 °F (1962)
Degree Days  
Heating Degree Days 23 31  
Month to date heating degree days 349 310  
Since 1 July heating degree days 2017 2253  
Cooling Degree Days 0 0  
Month to date cooling degree days 0 0  
Year to date cooling degree days 0 0  
Moisture  
Dew Point 35 °F    
Average Humidity 82    
Maximum Humidity 92    
Minimum Humidity 71    
Precipitation  
Precipitation 0.14 in 0.01 in 0.32 in (1954)
Month to date precipitation 0.17 0.14  
Year to date precipitation 0.17 0.14  
Snow  
Snow 0.00 in 0.20 in 2.00 in (1954)
Month to date snowfall 0.0 1.3  
Since 1 July snowfall 4.0 7.5  
Snow Depth 0.00 in    
Sea Level Pressure  
Sea Level Pressure 29.90 in    
Wind  
Wind Speed 11 mph (WNW)    
Max Wind Speed 22 mph    
Max Gust Speed 26 mph    
Visibility 6 miles    
Events Fog , Rain    
T = Trace of Precipitation, MM = Missing Value Source: NWS Daily Summary

Daily Weather History Graph

Daily Weather History Graph

Search for Another Location

Airport or City:

Trip Planner

Search our weather history database for the weather conditions in past years. The results will help you decide how hot, cold, wet, or windy it might be!

Date:

Astronomy

Jan. 10, 2013 Rise Set
Actual Time 8:01 AM CST 5:54 PM CST
Civil Twilight 7:32 AM CST 6:23 PM CST
Nautical Twilight 7:01 AM CST 6:54 PM CST
Astronomical Twilight 6:30 AM CST 7:25 PM CST
Moon 6:43 AM CST (1/10) 5:04 PM CST (1/10)
Length of Visible Light 10h 50m
Length of Day
9h 53m
Waning Crescent, 2% of the Moon is Illuminated
Jan 10
Waning Crescent
Jan 11
New
Jan 18
First Quarter
Jan 26
Full
Feb 3
Last Quarter

Hourly Weather History & Observations

Time (CST) Temp. Windchill Dew Point Humidity Pressure Visibility Wind Dir Wind Speed Gust Speed Precip Events Conditions
12:53 AM 36.0 °F 27.5 °F 33.1 °F 89% 30.12 in 4.0 mi NNE 12.7 mph - 0.12 in Rain Rain
1:13 AM 35.6 °F 28.0 °F 33.8 °F 93% 30.14 in 7.0 mi NNE 10.4 mph - 0.01 in Rain Light Rain
1:53 AM 36.0 °F 28.0 °F 33.1 °F 89% 30.09 in 8.0 mi NNE 11.5 mph - 0.03 in Rain Light Rain
2:53 AM 36.0 °F 27.1 °F 33.1 °F 89% 30.06 in 10.0 mi North 13.8 mph - 0.00 in   Overcast
3:38 AM 35.6 °F 27.1 °F 33.8 °F 93% 30.06 in 5.0 mi North 12.7 mph - N/A   Overcast
3:53 AM 35.1 °F 27.4 °F 33.1 °F 92% 30.03 in 1.8 mi North 10.4 mph - N/A   Overcast
4:43 AM 35.6 °F 28.0 °F 33.8 °F 93% 30.00 in 2.0 mi North 10.4 mph - N/A   Overcast
4:53 AM 35.1 °F 26.9 °F 33.1 °F 92% 29.98 in 2.0 mi NNE 11.5 mph - N/A   Overcast
5:09 AM 35.6 °F 27.5 °F 33.8 °F 93% 30.00 in 1.5 mi North 11.5 mph - N/A   Overcast
5:40 AM 35.6 °F 29.2 °F 33.8 °F 93% 29.98 in 1.0 mi NNE 8.1 mph - N/A   Overcast
5:53 AM 35.1 °F 28.6 °F 34.0 °F 96% 29.96 in 1.0 mi NNE 8.1 mph - N/A   Overcast
6:53 AM 35.1 °F 29.3 °F 33.1 °F 92% 29.97 in 1.0 mi NE 6.9 mph - N/A   Overcast
7:43 AM 35.6 °F 31.7 °F 33.8 °F 93% 30.00 in 3.0 mi NNW 4.6 mph - N/A   Overcast
7:53 AM 35.1 °F 31.0 °F 33.1 °F 92% 29.99 in 2.5 mi NNW 4.6 mph - N/A   Overcast
8:03 AM 35.6 °F 30.7 °F 33.8 °F 93% 29.99 in 1.8 mi NNW 5.8 mph - N/A   Overcast
8:32 AM 35.6 °F 30.7 °F 33.8 °F 93% 29.98 in 3.0 mi North 5.8 mph - N/A   Overcast
8:43 AM 35.6 °F 30.7 °F 33.8 °F 93% 29.97 in 4.0 mi North 5.8 mph - N/A   Overcast
8:53 AM 35.1 °F 31.0 °F 33.1 °F 92% 29.95 in 5.0 mi North 4.6 mph - N/A   Overcast
9:48 AM 35.6 °F 27.1 °F 33.8 °F 93% 29.93 in 1.8 mi WNW 12.7 mph - N/A   Overcast
9:53 AM 35.1 °F 25.9 °F 33.1 °F 92% 29.92 in 0.5 mi WNW 13.8 mph - N/A Fog Fog
10:14 AM 35.6 °F 27.1 °F 33.8 °F 93% 29.91 in 0.2 mi WNW 12.7 mph - N/A Fog Fog
10:24 AM 35.6 °F 27.1 °F 33.8 °F 93% 29.89 in 1.0 mi WNW 12.7 mph - N/A   Overcast
10:32 AM 37.4 °F 30.3 °F 35.6 °F 93% 29.89 in 3.0 mi NW 10.4 mph - N/A   Mostly Cloudy
10:53 AM 37.9 °F 33.5 °F 36.0 °F 93% 29.90 in 10.0 mi WNW 5.8 mph - N/A   Mostly Cloudy
11:51 AM 39.2 °F 34.2 °F 37.4 °F 93% 29.90 in 10.0 mi SW 6.9 mph - N/A   Overcast
11:53 AM 39.9 °F 35.1 °F 37.0 °F 89% 29.89 in 10.0 mi SW 6.9 mph - N/A   Overcast
12:36 PM 42.8 °F 38.6 °F 37.4 °F 81% 29.85 in 10.0 mi South 6.9 mph - N/A   Overcast
12:53 PM 43.0 °F 38.2 °F 37.9 °F 82% 29.82 in 10.0 mi South 8.1 mph - N/A   Overcast
1:53 PM 45.0 °F 38.9 °F 39.0 °F 80% 29.78 in 10.0 mi SSW 12.7 mph - N/A   Mostly Cloudy
2:48 PM 44.6 °F 36.6 °F 39.2 °F 81% 29.80 in 10.0 mi SSW 19.6 mph - N/A   Overcast
2:53 PM 45.0 °F 36.9 °F 39.0 °F 80% 29.78 in 10.0 mi SSW 20.7 mph - N/A   Overcast
3:04 PM 44.6 °F 37.8 °F 39.2 °F 81% 29.79 in 10.0 mi South 15.0 mph - N/A   Overcast
3:53 PM 48.0 °F - 39.9 °F 74% 29.76 in 10.0 mi SSW 15.0 mph - N/A   Scattered Clouds
4:53 PM 46.9 °F - 39.9 °F 77% 29.73 in 10.0 mi SSW 16.1 mph - N/A   Clear
5:53 PM 42.1 °F 36.6 °F 37.9 °F 85% 29.73 in 10.0 mi South 9.2 mph - N/A   Clear
6:53 PM 41.0 °F 37.1 °F 37.9 °F 89% 29.73 in 10.0 mi SSW 5.8 mph - N/A   Clear
7:53 PM 37.0 °F 30.4 °F 35.1 °F 93% 29.72 in 9.0 mi South 9.2 mph - N/A   Clear
8:53 PM 39.0 °F 32.8 °F 36.0 °F 89% 29.70 in 10.0 mi South 9.2 mph - N/A   Clear
9:53 PM 39.9 °F 31.8 °F 36.0 °F 86% 29.70 in 10.0 mi SSW 15.0 mph - N/A   Clear
10:53 PM 41.0 °F 33.9 °F 34.0 °F 76% 29.69 in 10.0 mi SSW 12.7 mph - N/A   Clear
11:53 PM 42.1 °F 33.1 °F 32.0 °F 67% 29.67 in 10.0 mi SSW 20.7 mph - N/A   Clear